Kecskemet, Hungary

7:21 AM CET on January 20, 2018 (GMT +0100)
Kecskemet

Weather History for LHKE - January, 2014

Change the Weather History Date:

Saturday, January 25, 2014

  Actual Average (LHBP) Record (LHBP)
Temperature  
Mean Temperature 23 °F -  
Max Temperature 25 °F 35 °F 50 °F (2002)
Min Temperature 21 °F 22 °F 0 °F (2006)
Degree Days  
Heating Degree Days 42    
Moisture  
Dew Point 21 °F    
Average Humidity 86    
Maximum Humidity 93    
Minimum Humidity 77    
Precipitation  
Precipitation 0.04 in - - ()
Sea Level Pressure  
Sea Level Pressure 29.89 in    
Wind  
Wind Speed 10 mph ()    
Max Wind Speed 20 mph    
Max Gust Speed -    
Visibility 2.1 miles    
Events Snow    
Averages and records for this station are not official NWS values.
T = Trace of Precipitation, MM = Missing Value Source: Averaged Metar Reports

Daily Weather History Graph

Daily Weather History Graph

Search for Another Location

Airport or City:

Trip Planner

Search our weather history database for the weather conditions in past years. The results will help you decide how hot, cold, wet, or windy it might be!

Date:

Astronomy

Jan. 25, 2014 Rise Set
Actual Time 7:13 AM CET 4:33 PM CET
Civil Twilight 6:40 AM CET 5:06 PM CET
Nautical Twilight 6:03 AM CET 5:43 PM CET
Astronomical Twilight 5:27 AM CET 6:19 PM CET
Moon 1:23 AM CET (1/25) 11:21 AM CET (1/25)
Length of Visible Light 10h 25m
Length of Day
9h 19m
Last Quarter, 37% of the Moon is Illuminated
Jan 25
Last Quarter
Jan 30
New
Feb 6
First Quarter
Feb 15
Full
Feb 22
Last Quarter

Hourly Weather History & Observations

Time (CET) Temp. Windchill Dew Point Humidity Pressure Visibility Wind Dir Wind Speed Gust Speed Precip Events Conditions
12:00 AM 27 °F - 24 °F 83% 29.86 in 1 mi NNE 17.9 mph - - Snow Snow
12:15 AM 26.6 °F 12.9 °F 23.0 °F 86% 29.83 in 1.2 mi NNE 20.1 mph - N/A Snow Snow
12:45 AM 26.6 °F 14.4 °F 23.0 °F 86% 29.83 in 1.2 mi NNE 15.7 mph - N/A Snow Snow
1:00 AM 26 °F - 23 °F 83% 29.86 in 1 mi NNE 15.7 mph - - Snow Snow
1:15 AM 26.6 °F 13.6 °F 23.0 °F 86% 29.83 in 1.9 mi NNE 17.9 mph - N/A Snow Light Snow
1:30 AM 26.6 °F 15.3 °F 23.0 °F 86% 29.83 in 3.1 mi NNE 13.4 mph - N/A Snow Light Snow
1:45 AM 24.8 °F 12.1 °F 21.2 °F 86% 29.83 in 3.1 mi NNE 15.7 mph - N/A Snow Light Snow
2:00 AM 26 °F - 22 °F 77% 29.87 in 3 mi NNE 15.7 mph - - Snow Light Snow
2:15 AM 24.8 °F 12.1 °F 21.2 °F 86% 29.83 in 2.5 mi NNE 15.7 mph - N/A Snow Light Snow
2:45 AM 24.8 °F 12.1 °F 21.2 °F 86% 29.83 in 2.5 mi NNE 15.7 mph - N/A Snow Light Snow
3:00 AM 25 °F - 21 °F 80% 29.87 in 2 mi NNE 15.7 mph - - Snow Light Snow
3:15 AM 24.8 °F 13.1 °F 21.2 °F 86% 29.83 in 1.9 mi NNE 13.4 mph - N/A Snow Light Snow
3:45 AM 24.8 °F 14.2 °F 21.2 °F 86% 29.83 in 1.9 mi NNE 11.2 mph - N/A Snow Light Snow
4:00 AM 25 °F - 21 °F 80% 29.87 in 2 mi NNE 11.2 mph - - Snow Light Snow
4:15 AM 24.8 °F 14.2 °F 21.2 °F 86% 29.83 in 2.5 mi NNE 11.2 mph - N/A Snow Light Snow
4:33 AM 24.8 °F 13.1 °F 21.2 °F 86% 29.83 in 1.9 mi NNE 13.4 mph - N/A Snow Snow
4:45 AM 24.8 °F 13.1 °F 21.2 °F 86% 29.83 in 1.2 mi NNE 13.4 mph - N/A Snow Snow
5:00 AM 25 °F - 22 °F 82% 29.87 in 1 mi NNE 13.4 mph - - Snow Snow
5:15 AM 24.8 °F 14.2 °F 21.2 °F 86% 29.83 in 1.2 mi NNE 11.2 mph - N/A Snow Snow
5:45 AM - - - N/A% - 3.7 mi NNE 8.9 mph - N/A   Overcast
6:00 AM 25 °F - 22 °F 84% 29.87 in 1 mi NNE 8.9 mph - - Snow Snow
6:15 AM 24.8 °F 14.2 °F 23.0 °F 93% 29.83 in 1.2 mi NNE 11.2 mph - N/A Snow Snow
6:45 AM 24.8 °F 15.5 °F 23.0 °F 93% 29.83 in 1.2 mi NNE 8.9 mph - N/A Snow Light Snow
7:00 AM 25 °F - 22 °F 85% 29.88 in 1 mi NNE 8.9 mph - - Snow Light Snow
7:15 AM 24.8 °F 15.5 °F 21.2 °F 86% 29.83 in 1.2 mi NNE 8.9 mph - N/A Snow Light Snow
7:45 AM 24.8 °F 15.5 °F 21.2 °F 86% 29.86 in 1.6 mi NNE 8.9 mph - N/A Snow Light Snow
8:00 AM 24 °F - 21 °F 85% 29.89 in 2 mi NNE 8.9 mph - - Snow Light Snow
8:15 AM 24.8 °F 15.5 °F 21.2 °F 86% 29.86 in 1.6 mi NNE 8.9 mph - N/A Snow Light Snow
8:45 AM 24.8 °F 17.1 °F 21.2 °F 86% 29.86 in 1.2 mi NNE 6.7 mph - N/A Snow Snow
8:55 AM - - - N/A% - 3.7 mi NNE 8.9 mph - N/A   Overcast
9:00 AM 24 °F - 21 °F 84% 29.90 in 1 mi NNE 6.7 mph - - Snow Snow
9:15 AM 24.8 °F 17.1 °F 21.2 °F 86% 29.86 in 1.6 mi NNE 6.7 mph - N/A Snow Light Snow
9:45 AM 24.8 °F 17.1 °F 21.2 °F 86% 29.89 in 1.2 mi NNE 6.7 mph - N/A Snow Light Snow
10:00 AM 25 °F - 21 °F 80% 29.92 in 1 mi NNE 6.7 mph - - Snow Light Snow
10:15 AM 24.8 °F 17.1 °F 21.2 °F 86% 29.89 in 1.2 mi NNE 6.7 mph - N/A Snow Light Snow
10:18 AM 24.8 °F 17.1 °F 21.2 °F 86% 29.89 in 0.9 mi NNE 6.7 mph - N/A Snow Snow
10:45 AM 24.8 °F 17.1 °F 21.2 °F 86% 29.89 in 1.6 mi NNE 6.7 mph - N/A Snow Light Snow
11:00 AM 25 °F - 22 °F 81% 29.92 in 2 mi NNE 6.7 mph - - Snow Light Snow
11:08 AM 24.8 °F 15.5 °F 21.2 °F 86% 29.89 in 3.1 mi NE 8.9 mph - N/A Snow Light Snow
11:15 AM 24.8 °F 17.1 °F 21.2 °F 86% 29.89 in 3.1 mi NE 6.7 mph - N/A Snow Light Snow
11:45 AM - - - N/A% - 3.7 mi NNE 8.9 mph - N/A   Overcast
11:47 AM 24.8 °F 15.5 °F 21.2 °F 86% 29.89 in 1.9 mi NE 8.9 mph - N/A Snow Snow
12:00 PM 25 °F - 21 °F 78% 29.92 in 2 mi NE 8.9 mph - - Snow Snow
12:15 PM 24.8 °F 15.5 °F 21.2 °F 86% 29.89 in 1.9 mi NNE 8.9 mph - N/A Snow Snow
12:45 PM 24.8 °F 15.5 °F 21.2 °F 86% 29.89 in 1.9 mi NNE 8.9 mph - N/A Snow Light Snow
1:00 PM 25 °F - 21 °F 79% 29.92 in 2 mi NNE 8.9 mph - - Snow Light Snow
1:02 PM 24.8 °F 17.1 °F 21.2 °F 86% 29.89 in 0.9 mi NE 6.7 mph - N/A Snow Heavy Snow
1:15 PM 24.8 °F 15.5 °F 21.2 °F 86% 29.86 in 0.7 mi NE 8.9 mph - N/A Snow Heavy Snow
1:45 PM 24.8 °F 17.1 °F 21.2 °F 86% 29.86 in 0.7 mi NE 6.7 mph - N/A Snow Snow
2:00 PM 25 °F - 22 °F 84% 29.91 in 1 mi NE 6.7 mph - - Snow Snow
2:15 PM 24.8 °F 17.1 °F 21.2 °F 86% 29.89 in 0.7 mi NE 6.7 mph - N/A Snow Snow
2:45 PM - - - N/A% - 3.7 mi Variable 4.5 mph - N/A   Overcast
3:00 PM 25 °F - 21 °F 80% 29.92 in 1 mi NE 4.5 mph - - Snow Snow
3:15 PM 24.8 °F 19.2 °F 21.2 °F 86% 29.89 in 1.2 mi ENE 4.5 mph - N/A Snow Snow
3:45 PM 23.0 °F 17.1 °F 21.2 °F 93% 29.89 in 1.2 mi ENE 4.5 mph - N/A Snow Snow
4:00 PM 24 °F - 21 °F 82% 29.93 in 1 mi ENE 4.5 mph - - Snow Snow
4:15 PM 23.0 °F - 21.2 °F 93% 29.89 in 1.2 mi NE 2.2 mph - N/A Snow Snow
4:45 PM 23.0 °F 14.9 °F 19.4 °F 86% 29.89 in 1.2 mi NE 6.7 mph - N/A Snow Light Snow
4:50 PM 23.0 °F 17.1 °F 19.4 °F 86% 29.89 in 0.9 mi NE 4.5 mph - N/A Snow Light Snow
5:00 PM 23 °F - 20 °F 84% 29.94 in 1 mi NE 6.7 mph - - Snow Light Snow
5:15 PM 23.0 °F 17.1 °F 19.4 °F 86% 29.89 in 2.5 mi NE 4.5 mph - N/A Snow Light Snow
5:40 PM 23.0 °F 14.9 °F 19.4 °F 86% 29.89 in 3.1 mi NE 6.7 mph - N/A Snow Light Snow
5:45 PM - - - N/A% - 5.0 mi Variable 4.5 mph - N/A   Overcast
6:00 PM 23 °F - 19 °F 79% 29.95 in 4 mi NE 6.7 mph - - Snow Light Snow
6:15 PM 23.0 °F 17.1 °F 19.4 °F 86% 29.92 in 5.0 mi NE 4.5 mph - N/A Snow Light Snow
6:45 PM 23.0 °F 17.1 °F 19.4 °F 86% 29.92 in 5.0 mi NE 4.5 mph - N/A Snow Light Snow
7:00 PM 22 °F - 19 °F 81% 29.95 in 5 mi NE 4.5 mph - - Snow Light Snow
7:15 PM 21.2 °F - 19.4 °F 93% 29.92 in 5.0 mi ENE 2.2 mph - N/A Snow Light Snow
7:45 PM 21.2 °F - 19.4 °F 93% 29.92 in 4.3 mi ENE 2.2 mph - N/A Snow Light Snow
7:51 PM 21.2 °F 15.0 °F 19.4 °F 93% 29.92 in 3.1 mi East 4.5 mph - N/A Snow Snow
8:00 PM 22 °F - 19 °F 82% 29.96 in 4 mi ENE 2.2 mph - - Snow Light Snow
8:15 PM 21.2 °F - 19.4 °F 93% 29.92 in 3.1 mi Calm Calm - N/A Snow Light Snow
8:45 PM - - - N/A% - 5.0 mi Variable 4.5 mph - N/A   Overcast
9:00 PM 22 °F - 19 °F 83% 29.96 in 3 mi Calm Calm - - Snow Light Snow
9:15 PM 21.2 °F - 19.4 °F 93% 29.92 in 1.9 mi Calm Calm - N/A Snow Snow
9:45 PM 21.2 °F - 19.4 °F 93% 29.92 in 1.2 mi Calm Calm - N/A Snow Snow
10:00 PM 22 °F - 19 °F 84% 29.96 in 1 mi Calm Calm - - Snow Snow
10:15 PM 21.2 °F - 19.4 °F 93% 29.92 in 1.2 mi East 2.2 mph - N/A Snow Snow
10:45 PM 21.2 °F - 19.4 °F 93% 29.92 in 1.2 mi ESE 2.2 mph - N/A Snow Snow
11:00 PM 21 °F - 18 °F 86% 29.96 in 1 mi ESE 2.2 mph - - Snow Snow
11:00 PM - - - N/A% - 5.0 mi Variable 4.5 mph - N/A   Overcast
11:15 PM 21.2 °F - 17.6 °F 86% 29.92 in 1.2 mi ENE 2.2 mph - N/A Snow Light Snow
11:45 PM - - - N/A% - 5.0 mi North - - N/A   Overcast